FW1130 Weather Reports


time (UTC)temp
F
wind
direction
speed
knots
gust
knots
rain 1hr
in
rain 24hr
in
rain mn
in
humidity
%
barometer
mb
20260503181836 75 207 0.0 0.0 0.00 0.00 0.00 50 1012.3
20260503181333 75 156 0.0 0.0 0.00 0.00 0.00 50 1012.2
20260503180825 74 135 0.0 0.0 0.00 0.00 0.00 51 1012.2
20260503180332 74 214 0.0 0.0 0.00 0.00 0.00 50 1012.2
20260503175844 74 208 0.0 0.0 0.00 0.00 0.00 48 1012.2
20260503175338 73 201 0.0 0.0 0.00 0.00 0.00 48 1012.3
20260503174829 73 170 0.0 0.0 0.00 0.00 0.00 49 1012.3
20260503174326 73 170 0.0 0.0 0.00 0.00 0.00 48 1012.4
20260503173836 73 170 0.0 0.0 0.00 0.00 0.00 47 1012.4
20260503173326 72 170 0.0 0.0 0.00 0.00 0.00 48 1012.5
20260503172836 71 170 0.0 0.0 0.00 0.00 0.00 47 1012.5
20260503172339 71 170 0.0 0.0 0.00 0.00 0.00 49 1012.6
20260503171856 70 170 0.0 0.0 0.00 0.00 0.00 52 1012.6
20260503171345 69 170 0.0 0.0 0.00 0.00 0.00 53 1012.7
20260503170842 69 170 0.0 0.0 0.00 0.00 0.00 55 1012.7
20260503170330 69 170 0.0 0.0 0.00 0.00 0.00 54 1012.7
20260503150831 62 170 0.0 0.9 0.00 0.00 0.00 70 1013.4
20260503150333 62 170 0.0 0.0 0.00 0.00 0.00 72 1013.5
20260503131323 51 170 0.0 0.0 0.00 0.00 0.00 87 1013.3
20260503130824 51 170 0.0 0.0 0.00 0.00 0.00 87 1013.3
20260503130344 51 170 0.0 0.0 0.00 0.00 0.00 86 1013.3
20260503110341 52 170 0.0 0.0 0.00 0.00 0.00 84 1013.1
20260503090343 55 170 0.0 0.0 0.00 0.00 0.00 81 1013.0
20260503081324 56 170 0.0 0.0 0.00 0.00 0.00 80 1012.9
20260503080840 56 170 0.0 0.0 0.00 0.00 0.00 80 1013.0
20260503080328 57 170 0.0 0.0 0.00 0.00 0.00 80 1012.9
20260503072839 58 170 0.0 0.0 0.00 0.00 0.00 78 1012.7
20260503072359 58 170 0.0 0.0 0.00 0.00 0.00 78 1012.7
20260503071842 58 170 0.0 0.0 0.00 0.00 0.00 78 1012.7
20260503071327 58 170 0.0 0.0 0.00 0.00 0.00 77 1012.8
20260503070851 58 170 0.0 0.0 0.00 0.00 0.00 77 1012.7
20260503070333 59 170 0.0 0.0 0.00 0.00 0.00 77 1012.6
20260503060327 61 170 0.0 0.0 0.00 0.00 0.00 72 1012.3
20260503054832 62 170 0.0 0.0 0.00 0.00 0.00 70 1012.2
20260503054324 62 170 0.0 0.0 0.00 0.00 0.00 70 1012.2
20260503053831 62 170 0.0 0.0 0.00 0.00 0.00 70 1012.1
20260503053327 62 170 0.0 0.0 0.00 0.00 0.00 69 1012.2
20260503052829 62 170 0.0 0.0 0.00 0.00 0.00 69 1012.1
20260503052339 63 170 0.0 0.0 0.00 0.00 0.00 69 1012.1
20260503051848 63 170 0.0 0.0 0.00 0.00 0.00 68 1012.1
20260503051329 63 170 0.0 0.0 0.00 0.00 0.00 67 1012.1
20260503050826 63 170 0.0 0.0 0.00 0.00 0.00 66 1012.1
20260503050341 64 170 0.0 0.0 0.00 0.00 0.00 66 1012.0
20260503045337 64 170 0.0 0.0 0.00 0.00 0.00 65 1012.0
20260503044838 65 170 0.0 0.0 0.00 0.00 0.00 64 1011.9
20260503044323 65 170 0.0 0.0 0.00 0.00 0.00 63 1011.8
20260503043830 66 170 0.0 0.0 0.00 0.00 0.00 62 1011.8
20260503043333 66 170 0.0 0.0 0.00 0.00 0.00 62 1011.9
20260503042829 67 170 0.0 0.0 0.00 0.00 0.00 60 1011.8
20260503042322 67 170 0.0 0.0 0.00 0.00 0.00 59 1011.8
20260503041822 67 170 0.0 0.0 0.00 0.00 0.00 59 1011.7
20260503041344 68 170 0.0 0.0 0.00 0.00 0.00 58 1011.7
20260503040825 68 170 0.0 0.0 0.00 0.00 0.00 57 1011.6
20260503040339 68 170 0.0 0.0 0.00 0.00 0.00 56 1011.6
20260503035828 69 170 0.0 0.0 0.00 0.00 0.00 54 1011.5
20260503035351 69 170 0.0 0.0 0.00 0.00 0.00 54 1011.5
20260503034852 70 170 0.0 0.0 0.00 0.00 0.00 53 1011.4
20260503034355 70 170 0.0 0.0 0.00 0.00 0.00 53 1011.3
20260503033833 70 170 0.0 0.0 0.00 0.00 0.00 52 1011.3
20260503033358 71 170 0.0 0.0 0.00 0.00 0.00 50 1011.2
20260503032828 71 170 0.0 0.0 0.00 0.00 0.00 50 1011.2
20260503032326 72 170 0.0 0.0 0.00 0.00 0.00 50 1011.2
20260503031828 72 170 0.0 0.0 0.00 0.00 0.00 49 1011.1
20260503031332 73 170 0.0 0.0 0.00 0.00 0.00 48 1011.1
20260503030828 73 170 0.0 0.0 0.00 0.00 0.00 47 1011.1
20260503030344 73 170 0.0 0.0 0.00 0.00 0.00 46 1011.1
20260503025830 74 170 0.0 0.0 0.00 0.00 0.00 46 1011.1
20260503025330 74 170 0.0 0.0 0.00 0.00 0.00 45 1011.1
20260503024831 74 234 0.0 0.0 0.00 0.00 0.00 45 1011.0
20260503024327 74 234 0.0 0.0 0.00 0.00 0.00 45 1011.0
20260503023841 75 234 0.0 0.0 0.00 0.00 0.00 44 1011.0
20260503023341 75 234 0.0 0.0 0.00 0.00 0.00 43 1011.0
20260503022824 75 240 0.0 0.0 0.00 0.00 0.00 43 1011.0
20260503022342 75 263 0.0 0.0 0.00 0.00 0.00 43 1011.0
20260503021832 75 311 0.0 0.0 0.00 0.00 0.00 43 1011.0
20260503021405 76 31 0.0 0.9 0.00 0.00 0.00 42 1011.0
20260503020840 76 11 0.0 0.9 0.00 0.00 0.00 42 1011.1
20260503020336 76 148 0.0 0.0 0.00 0.00 0.00 41 1011.1
20260503015844 76 223 0.0 0.0 0.00 0.00 0.00 40 1011.2
20260503015342 77 183 0.0 0.0 0.00 0.00 0.00 39 1011.2
20260503014834 77 261 0.0 2.6 0.00 0.00 0.00 39 1011.3
20260503014334 78 201 0.0 2.6 0.00 0.00 0.00 38 1011.3
20260503013844 79 12 0.0 0.9 0.00 0.00 0.00 38 1011.3
20260503013331 79 290 0.0 0.9 0.00 0.00 0.00 38 1011.4
20260503012824 79 222 0.0 0.0 0.00 0.00 0.00 38 1011.4
20260503012329 79 199 0.0 0.0 0.00 0.00 0.00 38 1011.4
20260503011834 79 215 0.0 0.9 0.00 0.00 0.00 38 1011.5
20260503011323 78 346 0.0 1.7 0.00 0.00 0.00 38 1011.5
20260503010829 78 293 0.0 7.0 0.00 0.00 0.00 38 1011.4
20260503010330 79 239 0.9 7.0 0.00 0.00 0.00 38 1011.5
20260503005838 78 239 0.0 0.9 0.00 0.00 0.00 38 1011.5
20260503005323 78 148 0.0 0.0 0.00 0.00 0.00 41 1011.6
20260503004826 78 212 0.0 2.6 0.00 0.00 0.00 40 1011.6
20260503004324 79 274 0.0 0.0 0.00 0.00 0.00 40 1011.6
20260503003840 79 333 0.0 0.0 0.00 0.00 0.00 40 1011.6
20260503003339 79 335 0.0 0.0 0.00 0.00 0.00 40 1011.7
20260503002825 79 338 0.0 0.9 0.00 0.00 0.00 39 1011.7
20260503002346 80 231 0.0 0.9 0.00 0.00 0.00 40 1011.7
20260503001833 79 281 0.0 0.0 0.00 0.00 0.00 41 1011.8
20260503001403 79 329 0.0 1.7 0.00 0.00 0.00 39 1011.9
20260503000834 79 327 0.0 1.7 0.00 0.00 0.00 39 1011.9
20260503000333 81 335 0.0 0.0 0.00 0.00 0.00 38 1012.0
20260502235829 81 256 0.0 0.0 0.00 0.00 0.00 37 1012.0
20260502235336 81 314 0.0 0.0 0.00 0.00 0.00 38 1012.0
20260502234828 80 240 0.0 0.0 0.00 0.00 0.00 38 1012.1
20260502234328 80 237 0.0 0.0 0.00 0.00 0.00 39 1012.1
20260502233840 80 237 0.0 0.9 0.00 0.00 0.00 40 1012.2
20260502233341 80 349 0.0 3.5 0.00 0.00 0.00 41 1012.2
20260502232823 79 300 0.0 3.5 0.00 0.00 0.00 41 1012.3
20260502232350 79 22 0.0 1.7 0.00 0.00 0.00 40 1012.3
20260502231827 79 206 0.0 5.2 0.00 0.00 0.00 41 1012.3
20260502231332 79 213 0.0 8.7 0.00 0.00 0.00 41 1012.4
20260502230825 79 302 0.0 8.7 0.00 0.00 0.00 40 1012.4
20260502230326 79 300 0.0 0.9 0.00 0.00 0.00 40 1012.5
20260502225831 79 221 0.0 0.9 0.00 0.00 0.00 42 1012.6
20260502225326 78 208 0.0 2.6 0.00 0.00 0.00 42 1012.6
20260502224840 79 349 0.0 0.0 0.00 0.00 0.00 42 1012.8
20260502224338 78 226 0.0 1.7 0.00 0.00 0.00 44 1012.8
20260502223823 78 202 0.0 1.7 0.00 0.00 0.00 44 1012.9
20260502223322 78 227 0.0 0.9 0.00 0.00 0.00 45 1013.0
20260502222855 77 232 0.0 0.9 0.00 0.00 0.00 44 1013.0
20260502222324 77 217 0.0 0.9 0.00 0.00 0.00 45 1013.1
20260502221836 76 229 0.0 0.0 0.00 0.00 0.00 45 1013.2
20260502221401 76 212 0.0 0.0 0.00 0.00 0.00 44 1013.3
20260502220838 75 347 0.0 0.9 0.00 0.00 0.00 44 1013.3
20260502220347 76 354 0.0 0.9 0.00 0.00 0.00 40 1013.4
20260502215842 76 323 0.0 0.0 0.00 0.00 0.00 40 1013.4
20260502215333 75 218 0.0 0.0 0.00 0.00 0.00 43 1013.5
20260502214830 76 198 0.0 0.0 0.00 0.00 0.00 40 1013.6
20260502214341 76 303 0.0 0.0 0.00 0.00 0.00 43 1013.6
20260502213826 76 274 0.0 4.3 0.00 0.00 0.00 45 1013.7
20260502213323 76 287 0.0 4.3 0.00 0.00 0.00 44 1013.8
20260502212854 77 236 0.0 0.9 0.00 0.00 0.00 44 1013.7
20260502212338 76 201 0.0 1.7 0.00 0.00 0.00 45 1013.8
20260502211840 76 248 0.0 1.7 0.00 0.00 0.00 44 1013.8
20260502211343 77 220 0.0 1.7 0.00 0.00 0.00 43 1013.9
20260502210846 76 37 0.0 1.7 0.00 0.00 0.00 44 1013.9
20260502210347 77 243 0.0 0.0 0.00 0.00 0.00 47 1013.9
20260502205844 76 231 0.0 0.9 0.00 0.00 0.00 51 1013.9
20260502205340 76 115 0.0 0.9 0.00 0.00 0.00 54 1014.0
20260502204829 76 309 0.0 0.9 0.00 0.00 0.00 54 1014.0
20260502204326 76 289 0.0 4.3 0.00 0.00 0.00 53 1014.1
20260502203838 76 224 0.0 4.3 0.00 0.00 0.00 52 1014.2
20260502203353 77 236 0.0 0.0 0.00 0.00 0.00 51 1014.2
20260502202836 76 179 0.0 3.5 0.00 0.00 0.00 51 1014.2
20260502202345 76 218 0.0 3.5 0.00 0.00 0.00 51 1014.3
20260502201859 76 287 0.0 2.6 0.00 0.00 0.00 51 1014.3
20260502201340 76 159 0.0 0.9 0.00 0.00 0.00 50 1014.3
20260502200839 76 198 0.0 0.0 0.00 0.00 0.00 52 1014.4
20260502200346 74 240 0.0 0.9 0.00 0.00 0.00 55 1014.4
20260502195823 73 218 0.0 4.3 0.00 0.00 0.00 55 1014.6
20260502195324 73 146 0.9 4.3 0.00 0.00 0.00 55 1014.6
20260502194826 74 203 0.0 0.9 0.00 0.00 0.00 55 1014.7
20260502194323 73 228 0.0 0.9 0.00 0.00 0.00 55 1014.7
20260502193855 72 251 0.0 7.0 0.00 0.00 0.00 56 1014.8
20260502193355 72 148 0.0 7.0 0.00 0.00 0.00 56 1014.8
20260502192842 72 215 0.0 0.9 0.00 0.00 0.00 56 1014.9
20260502192334 71 156 0.0 3.5 0.00 0.00 0.00 58 1014.9
20260502191825 71 177 0.0 3.5 0.00 0.00 0.00 59 1014.9
20260502191330 71 197 0.0 0.0 0.00 0.00 0.00 59 1015.1
20260502190842 72 123 0.0 7.0 0.00 0.00 0.00 58 1015.1
20260502190347 71 213 0.0 7.0 0.00 0.00 0.00 58 1015.1
20260502185835 70 212 0.0 0.9 0.00 0.00 0.00 61 1015.1
20260502185331 70 260 0.0 0.9 0.00 0.00 0.00 61 1015.1
20260502184843 70 228 0.0 5.2 0.00 0.00 0.00 62 1015.1
20260502184324 70 243 0.0 0.9 0.00 0.00 0.00 61 1015.2
20260502183832 70 257 0.0 0.9 0.00 0.00 0.00 62 1015.2
20260502183353 70 208 0.0 0.9 0.00 0.00 0.00 61 1015.3
20260502182840 70 216 0.0 0.0 0.00 0.00 0.00 60 1015.3
20260502182328 70 156 0.0 0.0 0.00 0.00 0.00 61 1015.3